Regional Weather Roundup
Issued by NWS

Home | Current Version | Previous Version | Text Only | Print | Product List | Glossary On
Versions: 1 2 3 4 5 6 7 8 9 10 11 12 13 14 15 16 17 18 19 20 21 22 23 24 25 26 27 28 29 30 31 32 33 34 35 36 37 38 39 40 41 42 43 44 45 46 47 48 49 50
000
ASCA42 TJSJ 290711
RWRPR
PUERTO RICO/U.S. VIRGIN ISLANDS HOURLY WEATHER ROUNDUP
NATIONAL WEATHER SERVICE SAN JUAN PR
300 AM AST MON DEC 29 2014

PRZ001-004-290800-
PUERTO RICO

CITY           SKY/WX    TMP DP  RH WIND       PRES   REMARKS
SAN JUAN LMM   PTCLDY    73  70  88 CALM      30.05F
PONCE          PTCLDY    64  64 100 NE6       30.01S
CEIBA          MOCLDY    77  70  78 NE6       30.07S
$$

PRZ006-007-290800-
U.S. VIRGIN ISLANDS

CITY           SKY/WX    TMP DP  RH WIND       PRES   REMARKS
$$

HOURLY WEATHER ROUNDUP FOR THE NEWS MEDIA

CITY           SKY/WX    TMP DP  RH WIND       PRES   REMARKS
MIAMI          PTCLDY    71  69  93 CALM      30.12F
ORLANDO        PTCLDY    67  64  90 S3        30.11S
NEW YORK       CLOUDY    42  24  49 NW17      30.11R
NEWARK         CLOUDY    41  26  55 NW14      30.12R
CHICAGO        MOCLDY    26  18  71 N5        30.24S WCI  20
HARTFORD       MOCLDY    37  26  64 W10       30.03R WCI  30
BOSTON         MOCLDY    38  26  62 W10       30.04R WCI  31
DALLAS         CLEAR     37  26  64 S3        30.14F
PHILADELPHIA   CLOUDY    44  33  65 N13       30.13R



USA.gov is the U.S. government's official web portal to all federal, state and local government web resources and services.